Simultaneous Nadir Overpasses (SNOs) Predictions

Prediction of SNOs between GOES-14 and NOAA-20 Satellite Orbit:

Table of predicted SNOs for the next 14.0 days since TLE Epoch: 3/16/2024
Index Date Time (GOES-14) GOES-14 Lat,Lon NOAA-20 Lat,Lon Distance(km) Time Diff (sec)
1 03/16/2024 08:30:38 0.12,-108.44 -0.29,-106.67 201.69 80
2 03/17/2024 20:52:33 -0.13,-108.46 -0.92,-111.96 399.85 80
3 03/18/2024 20:36:28 -0.13,-108.46 0.08,-107.43 117.43 80
4 03/20/2024 08:58:15 0.14,-108.45 1.06,-112.70 482.85 80
5 03/21/2024 08:36:50 0.14,-108.46 0.06,-108.16 34.22 80
6 03/23/2024 20:39:59 -0.14,-108.48 -0.26,-108.92 49.86 80
7 03/24/2024 20:23:55 -0.14,-108.49 0.80,-104.39 467.79 80
8 03/26/2024 08:45:41 0.15,-108.49 0.39,-109.65 131.93 80
9 03/27/2024 08:24:16 0.14,-108.49 -0.62,-105.12 385.22 80
10 03/28/2024 20:46:11 -0.15,-108.51 -0.56,-110.41 216.79 80
11 03/29/2024 20:30:06 -0.15,-108.51 0.45,-105.88 300.52 80
